Dewpoint
68 71 75 74 73 74 74 74 74 74 74 74 74 74 73 73 73 73 73 73 73 74 74 72 72 72 71 72 71 71 73 73 71 72 73 73 73 74 73 74 73 69 75
67 70 75 75 74 74 74 75 74 74 74 73 74 74 74 73 73 73 73 73 72 73 73 70 71 72 71 71 71 71 71 72 73 71 71 72 73 73 72 74 72 71 74
65 69 71 74 74 75 74 74 75 74 73 74 73 73 73 73 73 73 73 73 72 72 71 71 71 71 71 71 70 70 71 71 71 72 73 71 66 74 73 72 72 73 73
65 66 68 74 74 74 74 74 74 74 74 74 74 74 73 73 73 72 72 72 72 72 71 71 71 71 71 71 71 71 71 71 71 72 69 68 67 73 73 73 72 72 73
66 66 71 75 75 75 74 74 74 74 74 74 74 74 73 73 73 72 72 71 71 70 70 70 71 72 72 72 72 72 72 72 72 71 70 69 69 71 73 74 73 73 73
64 65 73 75 75 74 73 74 75 73 72 73 74 73 72 72 71 71 70 70 70 71 72 72 73 73 73 73 73 73 73 73 72 68 69 70 70 72 71 72 73 73 73
64 65 70 75 74 74 75 75 73 73 72 72 72 72 71 71 71 71 71 72 71 71 71 71 71 72 72 72 73 75 74 73 70 69 70 70 69 75 73 73 73 73 74
62 62 67 75 74 74 73 75 73 73 72 72 72 71 71 71 73 74 74 74 72 70 71 71 71 71 71 73 74 74 73 73 69 68 69 68 72 73 74 74 74 74 74
63 65 66 67 71 73 75 74 73 74 73 73 72 71 73 74 73 73 72 74 73 72 71 69 71 73 73 73 73 73 72 70 68 67 68 67 73 71 71 72 73 75 75
65 65 67 67 67 67 68 73 74 73 72 72 71 73 73 72 69 68 72 73 72 72 71 71 71 71 72 71 71 73 73 74 70 67 68 66 70 70 71 71 73 76 76
64 66 68 68 69 70 69 71 73 72 71 70 71 72 72 65 66 67 72 73 73 71 71 71 70 71 72 73 72 71 72 66 65 67 66 73 71 71 71 72 73 76 76
63 63 66 66 66 67 64 70 70 69 69 70 71 73 70 71 70 68 70 69 70 70 71 70 70 71 71 65 66 71 65 64 65 67 67 72 72 73 73 73 72 74 75
62 62 64 67 68 64 64 66 67 67 67 70 73 74 73 73 72 70 70 69 70 69 68 69 69 67 68 70 68 67 68 67 63 64 68 72 72 73 73 73 73 73 73
60 62 63 66 70 66 64 64 66 66 67 68 71 75 74 70 73 73 71 71 73 70 72 70 68 70 69 70 69 68 67 67 66 66 72 72 72 73 73 73 74 74 73
60 61 62 67 70 69 70 67 69 68 67 69 70 72 72 71 72 72 73 71 72 71 70 70 69 70 70 67 68 68 68 68 68 67 69 72 73 73 73 73 73 71 71
59 61 62 65 68 69 70 73 71 71 70 69 69 70 73 71 73 70 72 70 70 71 74 71 72 71 69 68 69 69 70 68 69 69 66 69 72 72 71 71 71 71 71
60 61 62 64 66 71 73 72 71 68 66 69 69 72 73 73 74 75 70 69 68 71 72 70 71 70 68 68 69 68 68 70 68 69 66 66 70 72 71 71 71 70 70
62 63 64 62 67 71 73 72 70 69 68 69 70 70 72 73 74 74 71 68 70 71 69 69 69 69 68 68 69 68 68 69 69 68 67 67 66 65 68 70 70 70 69
65 66 67 68 68 70 73 71 72 73 70 70 70 69 72 72 73 74 69 70 73 70 70 69 68 70 69 69 66 68 69 68 68 65 67 68 68 66 64 69 69 68 68
67 67 68 69 71 72 71 73 70 69 68 68 69 68 71 71 73 73 70 72 74 69 68 71 75 72 70 70 65 67 69 69 67 66 65 64 66 65 63 64 63 62 63
68 69 69 69 72 71 69 68 67 65 66 66 67 71 72 72 72 75 69 70 71 70 74 73 72 71 68 70 67 62 69 68 65 63 62 62 64 63 62 61 59 57 56
68 70 71 71 72 73 69 69 68 67 65 66 68 71 71 71 71 72 74 72 73 71 73 74 74 70 69 70 69 62 58 64 66 63 62 63 64 63 61 59 58 60 58
67 70 71 72 72 73 72 70 71 70 69 66 65 66 69 72 72 73 74 74 75 74 68 74 73 73 69 69 72 66 53 48 54 66 65 64 64 62 61 58 58 59 59
65 67 71 73 73 72 74 71 72 65 62 61 65 67 70 72 72 72 74 75 76 72 74 72 72 74 76 68 65 66 68 64 53 52 62 64 63 63 63 58 56 58 59
64 64 68 72 73 73 74 73 69 70 62 63 64 71 76 75 73 71 73 74 75 70 76 75 75 75 72 70 63 59 63 59 62 54 48 53 59 59 59 57 56 55 57
63 64 65 70 74 74 73 73 73 70 68 64 66 67 67 68 69 74 73 74 76 76 75 74 76 76 73 71 64 61 55 53 51 50 47 52 52 57 58 57 56 55 55
Lifted_Index
-4 -4 -4 -4 -4 -5 -5 -5 -6 -6 -6 -6 -6 -6 -6 -6 -6 -6 -6 -5 -5 -5 -5 -5 -5 -4 -4 -4 -4 -4 -5 -5 -4 -4 -5 -5 -5 -5 -5 -5 -5 -5 -5
-3 -4 -4 -5 -5 -5 -5 -5 -5 -6 -6 -6 -6 -6 -5 -5 -5 -5 -5 -5 -5 -5 -5 -4 -4 -4 -4 -4 -4 -4 -4 -4 -4 -4 -4 -4 -5 -5 -5 -5 -5 -5 -5
-3 -4 -4 -5 -5 -5 -5 -5 -5 -5 -5 -5 -5 -5 -5 -5 -5 -5 -5 -5 -5 -5 -4 -4 -4 -4 -4 -3 -3 -3 -4 -4 -4 -4 -4 -4 -4 -5 -5 -5 -5 -5 -5
-3 -4 -4 -5 -5 -5 -5 -5 -5 -5 -5 -5 -5 -5 -5 -5 -5 -5 -5 -4 -4 -4 -4 -3 -3 -3 -3 -3 -3 -3 -3 -3 -4 -4 -4 -4 -4 -5 -5 -5 -5 -5 -5
-3 -4 -5 -5 -5 -5 -5 -5 -5 -5 -4 -4 -5 -5 -5 -5 -5 -4 -4 -4 -3 -3 -3 -3 -3 -3 -4 -4 -4 -4 -3 -3 -3 -3 -4 -4 -4 -4 -5 -5 -5 -5 -5
-3 -4 -5 -5 -5 -5 -5 -5 -5 -4 -4 -4 -4 -4 -4 -4 -4 -4 -4 -3 -3 -2 -2 -3 -3 -4 -4 -4 -4 -4 -4 -3 -3 -3 -4 -4 -4 -4 -4 -5 -5 -5 -5
-3 -3 -4 -5 -5 -4 -5 -5 -4 -4 -3 -3 -4 -4 -4 -4 -4 -4 -4 -4 -3 -2 -2 -2 -3 -4 -4 -4 -4 -4 -4 -4 -4 -4 -4 -4 -4 -4 -5 -5 -5 -5 -5
-2 -3 -3 -4 -4 -4 -5 -5 -4 -4 -4 -3 -3 -3 -3 -4 -4 -4 -5 -4 -3 -2 -2 -2 -3 -3 -3 -4 -4 -4 -4 -4 -4 -4 -4 -4 -4 -4 -4 -5 -5 -5 -5
-2 -2 -2 -3 -3 -4 -4 -4 -4 -4 -4 -4 -3 -3 -4 -4 -4 -4 -4 -4 -3 -3 -2 -2 -2 -3 -3 -3 -3 -4 -4 -4 -4 -4 -4 -4 -3 -3 -3 -4 -5 -5 -6
-2 -2 -2 -2 -2 -3 -3 -4 -4 -4 -4 -3 -3 -3 -3 -3 -2 -2 -3 -4 -3 -3 -2 -2 -2 -2 -2 -2 -3 -3 -4 -4 -4 -4 -4 -3 -2 -2 -2 -3 -4 -5 -6
-2 -2 -2 -2 -2 -3 -3 -3 -4 -3 -3 -3 -3 -3 -3 -2 -2 -2 -2 -3 -2 -2 -2 -1 -1 -1 -1 -2 -2 -2 -3 -3 -3 -3 -3 -3 -2 -2 -2 -3 -4 -5 -6
-2 -2 -2 -2 -2 -2 -2 -3 -3 -3 -3 -3 -4 -4 -4 -3 -2 -2 -2 -2 -2 -1 -1 -1 -1 -1 -2 -2 -3 -3 -3 -3 -3 -3 -3 -2 -2 -2 -3 -3 -4 -5 -6
-1 -1 -1 -2 -2 -2 -2 -2 -3 -3 -3 -3 -4 -5 -4 -4 -4 -3 -3 -3 -2 -2 -2 -2 -2 -2 -3 -3 -3 -3 -3 -3 -3 -2 -2 -2 -2 -2 -3 -4 -4 -5 -6
0 0 -0 -1 -2 -1 -1 -2 -2 -3 -3 -3 -4 -5 -5 -4 -4 -4 -4 -4 -4 -4 -4 -3 -3 -3 -4 -4 -3 -3 -3 -3 -3 -3 -3 -2 -2 -3 -3 -4 -5 -6 -6
1 1 1 -0 -1 -1 -2 -2 -3 -3 -3 -3 -4 -4 -5 -5 -5 -5 -5 -5 -5 -4 -4 -4 -4 -4 -4 -4 -3 -3 -3 -3 -3 -3 -3 -2 -3 -3 -3 -4 -4 -5 -6
2 1 1 0 -1 -2 -3 -3 -4 -3 -3 -3 -4 -4 -5 -5 -5 -5 -5 -5 -4 -4 -4 -4 -4 -4 -4 -4 -4 -4 -4 -3 -3 -3 -2 -2 -2 -2 -3 -3 -3 -4 -5
2 1 1 0 -1 -2 -3 -4 -4 -3 -3 -3 -4 -4 -5 -5 -5 -5 -5 -4 -4 -4 -4 -4 -4 -5 -4 -4 -4 -4 -4 -3 -3 -3 -2 -2 -2 -2 -2 -2 -3 -3 -4
1 1 1 0 -1 -3 -4 -4 -4 -3 -3 -3 -3 -4 -5 -5 -5 -5 -5 -4 -4 -4 -4 -4 -4 -4 -4 -4 -4 -4 -3 -3 -3 -3 -2 -2 -2 -1 -1 -1 -2 -2 -2
0 0 0 -0 -1 -3 -3 -4 -4 -4 -3 -3 -3 -4 -4 -5 -5 -5 -5 -5 -5 -5 -5 -4 -4 -4 -4 -4 -4 -3 -3 -3 -3 -2 -2 -2 -1 -1 -1 -1 -1 -1 -1
-1 -1 -0 -1 -1 -2 -3 -3 -3 -3 -3 -3 -3 -4 -4 -5 -5 -6 -5 -5 -5 -5 -5 -5 -5 -5 -5 -4 -4 -3 -3 -3 -3 -2 -1 -1 -1 -0 0 1 1 1 1
-2 -1 -1 -1 -1 -2 -2 -2 -2 -2 -2 -3 -3 -4 -4 -5 -5 -5 -5 -5 -5 -5 -5 -6 -6 -5 -5 -5 -4 -3 -3 -3 -2 -1 -1 -0 0 1 1 2 3 3 3
-2 -2 -2 -2 -2 -2 -2 -2 -2 -2 -2 -2 -3 -3 -4 -5 -5 -6 -6 -6 -6 -6 -6 -6 -6 -5 -5 -5 -4 -3 -1 -1 -1 -1 -0 -0 0 1 2 3 4 4 4
-2 -2 -3 -2 -2 -2 -2 -2 -2 -2 -1 -1 -2 -3 -4 -5 -5 -6 -6 -6 -7 -6 -6 -6 -6 -6 -5 -5 -4 -2 -0 1 0 -0 -0 -0 0 1 2 3 4 4 4
-1 -2 -3 -3 -3 -2 -2 -2 -2 -1 -0 -1 -1 -3 -4 -5 -5 -6 -6 -7 -7 -6 -6 -6 -6 -6 -6 -5 -3 -2 -1 1 1 1 0 0 1 1 2 3 4 4 4
-1 -1 -2 -3 -3 -3 -2 -2 -1 -1 0 -0 -1 -3 -4 -4 -5 -6 -6 -7 -7 -7 -7 -7 -7 -7 -6 -4 -2 -1 0 1 2 2 2 2 1 2 2 3 4 4 4
-1 -1 -2 -3 -3 -3 -3 -2 -1 -1 -0 -0 -1 -2 -3 -4 -4 -6 -6 -7 -7 -7 -7 -7 -7 -7 -6 -4 -2 0 1 2 3 3 3 3 2 2 3 3 4 4 4